,,PA_Meas_PMT16A,,PR_Meas_QMR101_102,,RH_Meas_QMH101,,SR_Meas_QMS101,,TA_Meas_QMH101,,GenWind,,GenWind,
time,status,PA,status,PR,status,RH,status,SR,status,TA,status,DirAvg,status,SpdAvg,
2013-06-22, 00:00:04,VALID,917.954,VALID,0,VALID,93.9967,VALID,0,VALID,19.3143,VALID,19,VALID,0,
2013-06-22, 00:01:04,VALID,917.943,VALID,0,VALID,93.9281,VALID,0,VALID,19.3338,VALID,19,VALID,0,
2013-06-22, 00:02:04,VALID,917.963,VALID,0,VALID,93.8443,VALID,0,VALID,19.3533,VALID,19,VALID,0,
2013-06-22, 00:03:04,VALID,917.98,VALID,0,VALID,93.7833,VALID,0,VALID,19.3533,VALID,19,VALID,0,
2013-06-22, 00:04:04,VALID,918.005,VALID,0,VALID,93.7451,VALID,0,VALID,19.3533,VALID,19,VALID,0,
2013-06-22, 00:05:04,VALID,918.017,VALID,0,VALID,93.7223,VALID,0,VALID,19.3338,VALID,19,VALID,0,
2013-06-22, 00:06:04,VALID,918.008,VALID,0,VALID,93.6689,VALID,0,VALID,19.3338,VALID,19,VALID,0,
2013-06-22, 00:07:04,VALID,918.009,VALID,0,VALID,93.6384,VALID,0,VALID,19.2948,VALID,19,VALID,0,
2013-06-22, 00:08:04,VALID,917.969,VALID,0,VALID,93.6079,VALID,0,VALID,19.2753,VALID,19,VALID,0,
2013-06-22, 00:09:04,VALID,917.959,VALID,0,VALID,93.5393,VALID,0,VALID,19.2558,VALID,19,VALID,0,
2013-06-22, 00:10:04,VALID,917.957,VALID,0,VALID,93.4555,VALID,0,VALID,19.2363,VALID,19,VALID,0,
2013-06-22, 00:11:04,VALID,917.933,VALID,0,VALID,93.5088,VALID,0,VALID,19.2168,VALID,19,VALID,0,
2013-06-22, 00:12:04,VALID,917.907,VALID,0,VALID,93.5774,VALID,0,VALID,19.1973,VALID,19,VALID,0,
2013-06-22, 00:13:04,VALID,917.901,VALID,0,VALID,93.7299,VALID,0,VALID,19.1568,VALID,19,VALID,0,
2013-06-22, 00:14:04,VALID,917.886,VALID,0,VALID,93.829,VALID,0.107441,VALID,19.1778,VALID,19,VALID,0,
2013-06-22, 00:15:04,VALID,917.917,VALID,0,VALID,93.951,VALID,0,VALID,19.1778,VALID,19,VALID,0,
2013-06-22, 00:16:04,VALID,917.896,VALID,0,VALID,94.0653,VALID,0,VALID,19.2182,VALID,19,VALID,0,
2013-06-22, 00:17:04,VALID,917.88,VALID,0,VALID,94.0272,VALID,0,VALID,19.2168,VALID,68,VALID,0,
2013-06-22, 00:18:04,VALID,917.887,VALID,0,VALID,93.9662,VALID,0,VALID,19.2377,VALID,69,VALID,0,
2013-06-22, 00:19:04,VALID,917.862,VALID,0,VALID,93.89,VALID,0,VALID,19.2572,VALID,93,VALID,0,
2013-06-22, 00:20:04,VALID,917.779,VALID,0,VALID,93.6918,VALID,0,VALID,19.2153,VALID,68,VALID,0,
2013-06-22, 00:21:04,VALID,917.832,VALID,0,VALID,93.4402,VALID,0,VALID,19.2168,VALID,68,VALID,0,
2013-06-22, 00:22:04,VALID,917.776,VALID,0,VALID,93.2877,VALID,0.107441,VALID,19.2168,VALID,68,VALID,0,
2013-06-22, 00:23:04,VALID,917.781,VALID,0,VALID,93.0285,VALID,0,VALID,19.1778,VALID,68,VALID,0,
2013-06-22, 00:24:04,VALID,917.806,VALID,0,VALID,92.9371,VALID,0,VALID,19.1388,VALID,68,VALID,0,
2013-06-22, 00:25:04,VALID,917.773,VALID,0,VALID,93.242,VALID,0,VALID,19.1583,VALID,43,VALID,0,
2013-06-22, 00:26:04,VALID,917.721,VALID,0,VALID,93.2191,VALID,0,VALID,19.2182,VALID,194,VALID,0,
2013-06-22, 00:27:04,VALID,917.744,VALID,0,VALID,93.0514,VALID,0.107441,VALID,19.1973,VALID,194,VALID,0,
2013-06-22, 00:28:04,VALID,917.682,VALID,0,VALID,92.9981,VALID,0,VALID,19.1778,VALID,194,VALID,0,
2013-06-22, 00:29:04,VALID,917.646,VALID,0,VALID,92.9599,VALID,0,VALID,19.1778,VALID,194,VALID,0,
2013-06-22, 00:30:04,VALID,917.68,VALID,0,VALID,92.9142,VALID,0,VALID,19.1568,VALID,194,VALID,0,
2013-06-22, 00:31:04,VALID,917.636,VALID,0,VALID,92.7312,VALID,0,VALID,19.1568,VALID,66,VALID,0,
2013-06-22, 00:32:04,VALID,917.63,VALID,0,VALID,92.6397,VALID,0,VALID,19.1388,VALID,66,VALID,0,
2013-06-22, 00:33:04,VALID,917.621,VALID,0,VALID,92.7541,VALID,0,VALID,19.1388,VALID,66,VALID,0,
2013-06-22, 00:34:04,VALID,917.629,VALID,0,VALID,92.8151,VALID,0,VALID,19.0983,VALID,66,VALID,0,
2013-06-22, 00:35:04,VALID,917.646,VALID,0,VALID,92.8685,VALID,0,VALID,19.0998,VALID,66,VALID,0,
2013-06-22, 00:36:04,VALID,917.659,VALID,0,VALID,92.8837,VALID,0,VALID,19.0803,VALID,66,VALID,0,
2013-06-22, 00:37:04,VALID,917.592,VALID,0,VALID,92.9599,VALID,0,VALID,19.0608,VALID,66,VALID,0,
2013-06-22, 00:38:04,VALID,917.655,VALID,0,VALID,92.9676,VALID,0,VALID,19.0608,VALID,66,VALID,0,
2013-06-22, 00:39:04,VALID,917.627,VALID,0,VALID,92.777,VALID,0,VALID,19.0413,VALID,66,VALID,0,
2013-06-22, 00:40:04,VALID,917.588,VALID,0,VALID,92.8075,VALID,0,VALID,19.0413,VALID,66,VALID,0,
2013-06-22, 00:41:04,VALID,917.563,VALID,0,VALID,92.7389,VALID,0,VALID,19.0218,VALID,66,VALID,0,
2013-06-22, 00:42:04,VALID,917.586,VALID,0,VALID,92.7541,VALID,0,VALID,19.0023,VALID,66,VALID,0,
2013-06-22, 00:43:04,VALID,917.592,VALID,0,VALID,92.8532,VALID,0,VALID,18.9828,VALID,66,VALID,0,
2013-06-22, 00:44:04,VALID,917.545,VALID,0,VALID,93.0743,VALID,0,VALID,18.9828,VALID,66,VALID,0,
2013-06-22, 00:45:04,VALID,917.559,VALID,0,VALID,93.1353,VALID,0,VALID,18.9633,VALID,66,VALID,0,
2013-06-22, 00:46:04,VALID,917.573,VALID,0,VALID,93.059,VALID,0,VALID,18.9633,VALID,66,VALID,0,
2013-06-22, 00:47:04,VALID,917.552,VALID,0,VALID,93.1124,VALID,0,VALID,18.9452,VALID,66,VALID,0,
2013-06-22, 00:48:04,VALID,917.54,VALID,0,VALID,93.1429,VALID,0,VALID,18.9048,VALID,66,VALID,0,
2013-06-22, 00:49:04,VALID,917.551,VALID,0,VALID,93.1124,VALID,0,VALID,18.8853,VALID,66,VALID,0,
2013-06-22, 00:50:04,VALID,917.535,VALID,0,VALID,93.0743,VALID,0,VALID,18.8867,VALID,66,VALID,0,
2013-06-22, 00:51:04,VALID,917.492,VALID,0,VALID,93.181,VALID,0,VALID,18.8463,VALID,66,VALID,0,
2013-06-22, 00:52:04,VALID,917.407,VALID,0,VALID,93.2344,VALID,0,VALID,18.8254,VALID,40,VALID,0,
2013-06-22, 00:53:04,VALID,917.435,VALID,0,VALID,93.242,VALID,0,VALID,18.8268,VALID,40,VALID,0,
2013-06-22, 00:54:04,VALID,917.411,VALID,0,VALID,93.1886,VALID,0,VALID,18.8268,VALID,40,VALID,0,
2013-06-22, 00:55:04,VALID,917.382,VALID,0,VALID,93.2268,VALID,0,VALID,18.8477,VALID,40,VALID,0,
2013-06-22, 00:56:04,VALID,917.332,VALID,0,VALID,93.2496,VALID,0,VALID,18.8073,VALID,40,VALID,0,
2013-06-22, 00:57:04,VALID,917.348,VALID,0,VALID,93.242,VALID,0,VALID,18.8073,VALID,40,VALID,0,
2013-06-22, 00:58:04,VALID,917.346,VALID,0,VALID,93.1353,VALID,0,VALID,18.8073,VALID,40,VALID,0,
2013-06-22, 00:59:04,VALID,917.328,VALID,0,VALID,93.12,VALID,0,VALID,18.7864,VALID,40,VALID,0,
2013-06-22, 01:00:04,VALID,917.324,VALID,0,VALID,93.0362,VALID,0,VALID,18.7683,VALID,40,VALID,0,
2013-06-22, 01:01:04,VALID,917.325,VALID,0,VALID,93.0362,VALID,0,VALID,18.7488,VALID,40,VALID,0,
2013-06-22, 01:02:04,VALID,917.246,VALID,0,VALID,93.181,VALID,0,VALID,18.7488,VALID,54,VALID,0,
2013-06-22, 01:03:04,VALID,917.283,VALID,0,VALID,93.3564,VALID,0,VALID,18.7892,VALID,40,VALID,0,
2013-06-22, 01:04:04,VALID,917.29,VALID,0,VALID,93.3182,VALID,0,VALID,18.7488,VALID,40,VALID,0,
2013-06-22, 01:05:04,VALID,917.294,VALID,0,VALID,93.3182,VALID,0,VALID,18.7488,VALID,40,VALID,0,
2013-06-22, 01:06:04,VALID,917.307,VALID,0,VALID,93.2344,VALID,0,VALID,18.7084,VALID,40,VALID,0,
2013-06-22, 01:07:04,VALID,917.274,VALID,0,VALID,93.1124,VALID,0,VALID,18.7308,VALID,40,VALID,0,
2013-06-22, 01:08:04,VALID,917.304,VALID,0,VALID,93.0438,VALID,0,VALID,18.6903,VALID,40,VALID,0,
2013-06-22, 01:09:04,VALID,917.305,VALID,0,VALID,93.2115,VALID,0,VALID,18.6708,VALID,40,VALID,0,
2013-06-22, 01:10:04,VALID,917.265,VALID,0,VALID,93.2268,VALID,0,VALID,18.6903,VALID,40,VALID,0,
2013-06-22, 01:11:04,VALID,917.267,VALID,0,VALID,93.3945,VALID,0,VALID,18.7098,VALID,40,VALID,0,
2013-06-22, 01:12:04,VALID,917.29,VALID,0,VALID,93.3182,VALID,0,VALID,18.7098,VALID,40,VALID,0,
2013-06-22, 01:13:04,VALID,917.274,VALID,0,VALID,93.1734,VALID,0,VALID,18.7308,VALID,40,VALID,0,
2013-06-22, 01:14:04,VALID,917.264,VALID,0,VALID,93.1734,VALID,0,VALID,18.7293,VALID,36,VALID,0,
2013-06-22, 01:15:04,VALID,917.216,VALID,0,VALID,93.1048,VALID,0,VALID,18.7683,VALID,23,VALID,0,
2013-06-22, 01:16:04,VALID,917.234,VALID,0,VALID,93.059,VALID,0,VALID,18.7878,VALID,23,VALID,0,
2013-06-22, 01:17:04,VALID,917.207,VALID,0,VALID,92.8837,VALID,0,VALID,18.8073,VALID,23,VALID,0,
2013-06-22, 01:18:04,VALID,917.19,VALID,0,VALID,92.7312,VALID,0,VALID,18.8477,VALID,23,VALID,0,
2013-06-22, 01:19:04,VALID,917.183,VALID,0,VALID,92.5635,VALID,0,VALID,18.8867,VALID,21,VALID,0,
2013-06-22, 01:20:04,VALID,917.15,VALID,0,VALID,92.2967,VALID,0,VALID,18.8463,VALID,21,VALID,0,
2013-06-22, 01:21:04,VALID,917.144,VALID,0,VALID,92.3119,VALID,0,VALID,18.8268,VALID,20,VALID,0,
2013-06-22, 01:22:04,VALID,917.09,VALID,0,VALID,92.2967,VALID,0,VALID,18.8268,VALID,20,VALID,0,
2013-06-22, 01:23:04,VALID,917.111,VALID,0,VALID,92.2586,VALID,0,VALID,18.8073,VALID,24,VALID,0,
2013-06-22, 01:24:04,VALID,917.116,VALID,0,VALID,92.2357,VALID,0,VALID,18.8073,VALID,15,VALID,0,
2013-06-22, 01:25:04,VALID,917.096,VALID,0,VALID,92.2281,VALID,0,VALID,18.7878,VALID,16,VALID,0,
2013-06-22, 01:26:04,VALID,917.056,VALID,0,VALID,92.19,VALID,0,VALID,18.7878,VALID,16,VALID,0,
2013-06-22, 01:27:04,VALID,917.054,VALID,0,VALID,92.1671,VALID,0,VALID,18.7683,VALID,11,VALID,0,
2013-06-22, 01:28:04,VALID,917.074,VALID,0,VALID,92.2814,VALID,0,VALID,18.7683,VALID,11,VALID,0,
2013-06-22, 01:29:04,VALID,917.065,VALID,0,VALID,92.3196,VALID,0,VALID,18.7683,VALID,11,VALID,0,
2013-06-22, 01:30:04,VALID,917.024,VALID,0,VALID,92.2738,VALID,0,VALID,18.7293,VALID,11,VALID,0,
2013-06-22, 01:31:04,VALID,917.025,VALID,0,VALID,92.2281,VALID,0,VALID,18.7293,VALID,12,VALID,0,
2013-06-22, 01:32:04,VALID,917.012,VALID,0,VALID,92.3424,VALID,0,VALID,18.7098,VALID,13,VALID,0,
2013-06-22, 01:33:04,VALID,917.024,VALID,0,VALID,92.2357,VALID,0,VALID,18.6903,VALID,12,VALID,0,
2013-06-22, 01:34:04,VALID,916.981,VALID,0,VALID,92.4263,VALID,0,VALID,18.6513,VALID,12,VALID,0,
2013-06-22, 01:35:04,VALID,916.967,VALID,0,VALID,92.7084,VALID,0,VALID,18.6319,VALID,12,VALID,0,
2013-06-22, 01:36:04,VALID,916.95,VALID,0,VALID,92.8685,VALID,0,VALID,18.6333,VALID,12,VALID,0,
2013-06-22, 01:37:04,VALID,916.958,VALID,0,VALID,92.9523,VALID,0,VALID,18.5929,VALID,12,VALID,0,
2013-06-22, 01:38:04,VALID,916.938,VALID,0,VALID,93.0057,VALID,0,VALID,18.5929,VALID,13,VALID,0,
2013-06-22, 01:39:04,VALID,916.912,VALID,0,VALID,92.9142,VALID,0.107441,VALID,18.5525,VALID,12,VALID,0,
2013-06-22, 01:40:04,VALID,916.928,VALID,0,VALID,92.8913,VALID,0,VALID,18.5149,VALID,12,VALID,0,
2013-06-22, 01:41:04,VALID,916.913,VALID,0,VALID,93.0057,VALID,0,VALID,18.5149,VALID,12,VALID,0,
2013-06-22, 01:42:04,VALID,916.904,VALID,0,VALID,93.0209,VALID,0,VALID,18.455,VALID,12,VALID,0,
2013-06-22, 01:43:04,VALID,916.879,VALID,0,VALID,93.0209,VALID,0,VALID,18.4355,VALID,12,VALID,0,
2013-06-22, 01:44:04,VALID,916.876,VALID,0,VALID,93.0514,VALID,0,VALID,18.4564,VALID,12,VALID,0,
2013-06-22, 01:45:04,VALID,916.905,VALID,0,VALID,93.1276,VALID,0,VALID,18.4369,VALID,12,VALID,0,
2013-06-22, 01:46:04,VALID,916.889,VALID,0,VALID,93.2268,VALID,0,VALID,18.4578,VALID,12,VALID,0,
2013-06-22, 01:47:04,VALID,916.882,VALID,0,VALID,93.3335,VALID,0,VALID,18.4564,VALID,12,VALID,0,
2013-06-22, 01:48:04,VALID,916.909,VALID,0,VALID,93.242,VALID,0,VALID,18.4369,VALID,12,VALID,0,
2013-06-22, 01:49:04,VALID,916.902,VALID,0,VALID,93.1048,VALID,0,VALID,18.4578,VALID,13,VALID,0,
2013-06-22, 01:50:04,VALID,916.89,VALID,0,VALID,92.7389,VALID,0,VALID,18.3979,VALID,30,VALID,0,
2013-06-22, 01:51:04,VALID,916.869,VALID,0,VALID,92.5406,VALID,0,VALID,18.3199,VALID,27,VALID,0,
2013-06-22, 01:52:04,VALID,916.876,VALID,0,VALID,92.7465,VALID,0,VALID,18.2823,VALID,24,VALID,0,
2013-06-22, 01:53:04,VALID,916.867,VALID,0,VALID,92.9447,VALID,0,VALID,18.2615,VALID,24,VALID,0,
2013-06-22, 01:54:04,VALID,916.869,VALID,0,VALID,93.2115,VALID,0,VALID,18.2615,VALID,24,VALID,0,
2013-06-22, 01:55:04,VALID,916.854,VALID,0,VALID,93.2725,VALID,0,VALID,18.2809,VALID,25,VALID,0,
2013-06-22, 01:56:04,VALID,916.874,VALID,0,VALID,93.3411,VALID,0,VALID,18.242,VALID,25,VALID,0,
2013-06-22, 01:57:04,VALID,916.868,VALID,0,VALID,93.4021,VALID,0,VALID,18.242,VALID,25,VALID,0,
2013-06-22, 01:58:04,VALID,916.83,VALID,0,VALID,93.2572,VALID,0,VALID,18.2225,VALID,25,VALID,0,
2013-06-22, 01:59:04,VALID,916.861,VALID,0,VALID,93.2954,VALID,0,VALID,18.203,VALID,25,VALID,0,
2013-06-22, 02:00:04,VALID,916.858,VALID,0,VALID,93.4478,VALID,0,VALID,18.203,VALID,25,VALID,0,
2013-06-22, 02:01:04,VALID,916.841,VALID,0,VALID,93.768,VALID,0,VALID,18.242,VALID,30,VALID,0,
2013-06-22, 02:02:04,VALID,916.832,VALID,0,VALID,93.8824,VALID,0,VALID,18.2615,VALID,29,VALID,0,
2013-06-22, 02:03:04,VALID,916.856,VALID,0,VALID,93.8366,VALID,0,VALID,18.2615,VALID,38,VALID,0,
2013-06-22, 02:04:05,VALID,916.798,VALID,0,VALID,94.0348,VALID,0,VALID,18.3199,VALID,44,VALID,0,
2013-06-22, 02:05:05,VALID,916.789,VALID,0,VALID,94.0272,VALID,0,VALID,18.3589,VALID,38,VALID,0,
2013-06-22, 02:06:05,VALID,916.784,VALID,0,VALID,93.9815,VALID,0,VALID,18.3784,VALID,38,VALID,0,
2013-06-22, 02:07:05,VALID,916.758,VALID,0,VALID,93.9052,VALID,0,VALID,18.3979,VALID,38,VALID,0,
2013-06-22, 02:08:05,VALID,916.765,VALID,0,VALID,93.8061,VALID,0,VALID,18.4174,VALID,38,VALID,0,
2013-06-22, 02:09:05,VALID,916.743,VALID,0,VALID,93.7528,VALID,0,VALID,18.4174,VALID,38,VALID,0,
2013-06-22, 02:10:05,VALID,916.754,VALID,0,VALID,93.7909,VALID,0,VALID,18.4174,VALID,38,VALID,0,
2013-06-22, 02:11:05,VALID,916.765,VALID,0,VALID,93.89,VALID,0,VALID,18.4369,VALID,38,VALID,0,
2013-06-22, 02:12:05,VALID,916.729,VALID,0,VALID,93.8443,VALID,0,VALID,18.4369,VALID,38,VALID,0,
2013-06-22, 02:13:05,VALID,916.704,VALID,0,VALID,93.8595,VALID,0,VALID,18.4564,VALID,38,VALID,0,
2013-06-22, 02:14:05,VALID,916.701,VALID,0,VALID,93.646,VALID,0,VALID,18.4564,VALID,38,VALID,0,
2013-06-22, 02:15:05,VALID,916.657,VALID,0,VALID,93.646,VALID,0,VALID,18.4578,VALID,38,VALID,0,
2013-06-22, 02:16:05,VALID,916.646,VALID,0,VALID,93.6765,VALID,0,VALID,18.4174,VALID,38,VALID,0,
2013-06-22, 02:17:05,VALID,916.651,VALID,0,VALID,93.7833,VALID,0,VALID,18.4174,VALID,38,VALID,0,
2013-06-22, 02:18:05,VALID,916.692,VALID,0,VALID,93.8138,VALID,0,VALID,18.4174,VALID,38,VALID,0,
2013-06-22, 02:19:05,VALID,916.657,VALID,0,VALID,93.7985,VALID,0,VALID,18.3993,VALID,38,VALID,0,
2013-06-22, 02:20:05,VALID,916.69,VALID,0,VALID,93.7604,VALID,0,VALID,18.3784,VALID,38,VALID,0,
2013-06-22, 02:21:05,VALID,916.67,VALID,0,VALID,93.8747,VALID,0,VALID,18.3784,VALID,38,VALID,0,
2013-06-22, 02:22:05,VALID,916.687,VALID,0,VALID,93.8747,VALID,0,VALID,18.3589,VALID,38,VALID,0,
2013-06-22, 02:23:05,VALID,916.651,VALID,0,VALID,93.951,VALID,0,VALID,18.3589,VALID,38,VALID,0,
2013-06-22, 02:24:05,VALID,916.629,VALID,0,VALID,94.0501,VALID,0,VALID,18.3798,VALID,38,VALID,0,
2013-06-22, 02:25:05,VALID,916.638,VALID,0,VALID,94.1034,VALID,0,VALID,18.3589,VALID,38,VALID,0,
2013-06-22, 02:26:05,VALID,916.647,VALID,0,VALID,94.0425,VALID,0,VALID,18.3603,VALID,38,VALID,0,
2013-06-22, 02:27:05,VALID,916.616,VALID,0,VALID,94.1111,VALID,0,VALID,18.3589,VALID,38,VALID,0,
2013-06-22, 02:28:05,VALID,916.646,VALID,0,VALID,94.2254,VALID,0,VALID,18.3798,VALID,38,VALID,0,
2013-06-22, 02:29:05,VALID,916.649,VALID,0,VALID,94.2635,VALID,0,VALID,18.3784,VALID,38,VALID,0,
2013-06-22, 02:30:05,VALID,916.618,VALID,0,VALID,94.073,VALID,0,VALID,18.3798,VALID,38,VALID,0,
2013-06-22, 02:31:05,VALID,916.578,VALID,0,VALID,94.2559,VALID,0,VALID,18.3589,VALID,38,VALID,0,
2013-06-22, 02:32:05,VALID,916.567,VALID,0,VALID,94.3017,VALID,0,VALID,18.3784,VALID,38,VALID,0,
2013-06-22, 02:33:05,VALID,916.556,VALID,0,VALID,94.3245,VALID,0,VALID,18.3784,VALID,38,VALID,0,
2013-06-22, 02:34:05,VALID,916.539,VALID,0,VALID,94.3398,VALID,0,VALID,18.3993,VALID,38,VALID,0,
2013-06-22, 02:35:05,VALID,916.561,VALID,0,VALID,94.3626,VALID,0,VALID,18.4188,VALID,38,VALID,0,
2013-06-22, 02:36:05,VALID,916.558,VALID,0,VALID,94.2026,VALID,0,VALID,18.3993,VALID,38,VALID,0,
2013-06-22, 02:37:05,VALID,916.586,VALID,0,VALID,94.2864,VALID,0,VALID,18.3993,VALID,38,VALID,0,
2013-06-22, 02:38:05,VALID,916.559,VALID,0,VALID,94.3169,VALID,0,VALID,18.3979,VALID,38,VALID,0,
2013-06-22, 02:39:05,VALID,916.58,VALID,0,VALID,94.4008,VALID,0,VALID,18.4369,VALID,68,VALID,0,
2013-06-22, 02:40:05,VALID,916.566,VALID,0,VALID,94.416,VALID,0,VALID,18.4564,VALID,68,VALID,0,
2013-06-22, 02:41:05,VALID,916.528,VALID,0,VALID,94.3093,VALID,0,VALID,18.4564,VALID,68,VALID,0,
2013-06-22, 02:42:05,VALID,916.51,VALID,0,VALID,94.4465,VALID,0,VALID,18.4759,VALID,68,VALID,0,
2013-06-22, 02:43:05,VALID,916.476,VALID,0,VALID,94.294,VALID,0,VALID,18.4954,VALID,68,VALID,0,
2013-06-22, 02:44:05,VALID,916.467,VALID,0,VALID,94.0272,VALID,0,VALID,18.4355,VALID,68,VALID,0,
2013-06-22, 02:45:05,VALID,916.466,VALID,0,VALID,93.8366,VALID,0,VALID,18.4174,VALID,68,VALID,0,
2013-06-22, 02:46:05,VALID,916.458,VALID,0,VALID,93.9738,VALID,0,VALID,18.3979,VALID,68,VALID,0,
2013-06-22, 02:47:05,VALID,916.444,VALID,0,VALID,94.1492,VALID,0,VALID,18.4383,VALID,68,VALID,0,
2013-06-22, 02:48:05,VALID,916.45,VALID,0,VALID,94.1492,VALID,0,VALID,18.3979,VALID,68,VALID,0,
2013-06-22, 02:49:05,VALID,916.432,VALID,0,VALID,94.1644,VALID,0,VALID,18.3979,VALID,68,VALID,0,
2013-06-22, 02:50:05,VALID,916.402,VALID,0,VALID,94.3398,VALID,0,VALID,18.4383,VALID,68,VALID,0,
2013-06-22, 02:51:05,VALID,916.408,VALID,0,VALID,94.355,VALID,0,VALID,18.4174,VALID,68,VALID,0,
2013-06-22, 02:52:05,VALID,916.367,VALID,0,VALID,94.1797,VALID,0,VALID,18.4383,VALID,37,VALID,0,
2013-06-22, 02:53:05,VALID,916.384,VALID,0,VALID,94.1644,VALID,0,VALID,18.3993,VALID,36,VALID,0,
2013-06-22, 02:54:05,VALID,916.373,VALID,0,VALID,94.1721,VALID,0,VALID,18.3798,VALID,36,VALID,0,
2013-06-22, 02:55:05,VALID,916.376,VALID,0,VALID,94.1949,VALID,0,VALID,18.3798,VALID,36,VALID,0,
2013-06-22, 02:56:05,VALID,916.352,VALID,0,VALID,94.3703,VALID,0,VALID,18.3979,VALID,49,VALID,0,
2013-06-22, 02:57:05,VALID,916.373,VALID,0,VALID,94.3855,VALID,0,VALID,18.4174,VALID,90,VALID,0,
2013-06-22, 02:58:05,VALID,916.366,VALID,0,VALID,94.2178,VALID,0,VALID,18.3979,VALID,90,VALID,0,
2013-06-22, 02:59:05,VALID,916.347,VALID,0,VALID,94.294,VALID,0,VALID,18.4174,VALID,90,VALID,0,
2013-06-22, 03:00:05,VALID,916.334,VALID,0,VALID,94.3169,VALID,0,VALID,18.3979,VALID,90,VALID,0,
2013-06-22, 03:01:05,VALID,916.345,VALID,0,VALID,94.4541,VALID,0.107441,VALID,18.4369,VALID,90,VALID,0,
2013-06-22, 03:02:05,VALID,916.331,VALID,0,VALID,94.233,VALID,0.107441,VALID,18.4174,VALID,90,VALID,0,
2013-06-22, 03:03:05,VALID,916.302,VALID,0,VALID,93.951,VALID,0,VALID,18.3784,VALID,90,VALID,0,
2013-06-22, 03:04:05,VALID,916.334,VALID,0,VALID,93.7451,VALID,0,VALID,18.3004,VALID,90,VALID,0,
2013-06-22, 03:05:05,VALID,916.31,VALID,0,VALID,93.9357,VALID,0,VALID,18.2809,VALID,90,VALID,0,
2013-06-22, 03:06:05,VALID,916.315,VALID,0,VALID,94.3093,VALID,0,VALID,18.3199,VALID,90,VALID,0,
2013-06-22, 03:07:05,VALID,916.338,VALID,0,VALID,94.5151,VALID,0,VALID,18.3199,VALID,90,VALID,0,
2013-06-22, 03:08:05,VALID,916.341,VALID,0,VALID,94.6066,VALID,0,VALID,18.3199,VALID,90,VALID,0,
2013-06-22, 03:09:05,VALID,916.345,VALID,0,VALID,94.6218,VALID,0,VALID,18.3199,VALID,90,VALID,0,
2013-06-22, 03:10:05,VALID,916.353,VALID,0,VALID,94.7362,VALID,0,VALID,18.3199,VALID,90,VALID,0,
2013-06-22, 03:11:05,VALID,916.358,VALID,0,VALID,94.9573,VALID,0,VALID,18.3589,VALID,90,VALID,0,
2013-06-22, 03:12:05,VALID,916.36,VALID,0,VALID,94.9496,VALID,0,VALID,18.3784,VALID,90,VALID,0,
2013-06-22, 03:13:05,VALID,916.363,VALID,0,VALID,94.8505,VALID,0,VALID,18.4188,VALID,90,VALID,0,
2013-06-22, 03:14:05,VALID,916.362,VALID,0,VALID,94.7591,VALID,0,VALID,18.3589,VALID,90,VALID,0,
2013-06-22, 03:15:05,VALID,916.344,VALID,0,VALID,94.82,VALID,0,VALID,18.3589,VALID,54,VALID,0,
2013-06-22, 03:16:05,VALID,916.334,VALID,0,VALID,94.7972,VALID,0,VALID,18.3394,VALID,54,VALID,0,
2013-06-22, 03:17:05,VALID,916.323,VALID,0,VALID,94.5075,VALID,0,VALID,18.2809,VALID,54,VALID,0,
2013-06-22, 03:18:05,VALID,916.3,VALID,0,VALID,94.7972,VALID,0,VALID,18.3004,VALID,54,VALID,0,
2013-06-22, 03:19:05,VALID,916.311,VALID,0,VALID,94.7819,VALID,0,VALID,18.2809,VALID,54,VALID,0,
2013-06-22, 03:20:05,VALID,916.285,VALID,0,VALID,94.7896,VALID,0,VALID,18.2809,VALID,54,VALID,0,
2013-06-22, 03:21:05,VALID,916.275,VALID,0,VALID,94.9039,VALID,0,VALID,18.3004,VALID,54,VALID,0,
2013-06-22, 03:22:05,VALID,916.243,VALID,0,VALID,94.8048,VALID,0,VALID,18.3199,VALID,54,VALID,0,
2013-06-22, 03:23:05,VALID,916.235,VALID,0,VALID,94.7819,VALID,0.107441,VALID,18.2809,VALID,54,VALID,0,
2013-06-22, 03:24:05,VALID,916.234,VALID,0,VALID,94.7057,VALID,0,VALID,18.2809,VALID,20,VALID,0,
2013-06-22, 03:25:05,VALID,916.236,VALID,0,VALID,94.9954,VALID,0.107441,VALID,18.3199,VALID,20,VALID,0,
2013-06-22, 03:26:05,VALID,916.213,VALID,0,VALID,95.1326,VALID,0,VALID,18.3784,VALID,20,VALID,0,
2013-06-22, 03:27:05,VALID,916.166,VALID,0,VALID,94.8505,VALID,0,VALID,18.4188,VALID,20,VALID,0,
2013-06-22, 03:28:05,VALID,916.188,VALID,0,VALID,94.8963,VALID,0,VALID,18.3784,VALID,20,VALID,0,
2013-06-22, 03:29:05,VALID,916.177,VALID,0,VALID,94.9115,VALID,0,VALID,18.3784,VALID,20,VALID,0,
2013-06-22, 03:30:05,VALID,916.137,VALID,0,VALID,94.8124,VALID,0,VALID,18.3784,VALID,20,VALID,0,
2013-06-22, 03:31:05,VALID,916.106,VALID,0,VALID,94.8048,VALID,0.107441,VALID,18.3784,VALID,20,VALID,0,
2013-06-22, 03:32:05,VALID,916.093,VALID,0,VALID,94.8963,VALID,0,VALID,18.3784,VALID,20,VALID,0,
2013-06-22, 03:33:05,VALID,916.101,VALID,0,VALID,94.9725,VALID,0,VALID,18.3979,VALID,20,VALID,0,
2013-06-22, 03:34:05,VALID,916.091,VALID,0,VALID,94.9649,VALID,0,VALID,18.3979,VALID,20,VALID,0,
2013-06-22, 03:35:05,VALID,916.114,VALID,0,VALID,94.7591,VALID,0,VALID,18.3589,VALID,20,VALID,0,
2013-06-22, 03:36:05,VALID,916.091,VALID,0,VALID,94.7514,VALID,0,VALID,18.3589,VALID,20,VALID,0,
2013-06-22, 03:37:05,VALID,916.126,VALID,0,VALID,94.8734,VALID,0,VALID,18.3784,VALID,20,VALID,0,
2013-06-22, 03:38:05,VALID,916.089,VALID,0,VALID,94.3703,VALID,0,VALID,18.2796,VALID,20,VALID,0,
2013-06-22, 03:39:05,VALID,916.045,VALID,0,VALID,94.3093,VALID,0,VALID,18.2225,VALID,20,VALID,0,
2013-06-22, 03:40:05,VALID,916.063,VALID,0,VALID,94.4541,VALID,0,VALID,18.203,VALID,20,VALID,0,
2013-06-22, 03:41:05,VALID,916.056,VALID,0,VALID,94.5532,VALID,0,VALID,18.164,VALID,20,VALID,0,
2013-06-22, 03:42:05,VALID,916.064,VALID,0,VALID,94.7514,VALID,0,VALID,18.203,VALID,20,VALID,0,
2013-06-22, 03:43:05,VALID,916.03,VALID,0,VALID,94.7667,VALID,0,VALID,18.203,VALID,20,VALID,0,
2013-06-22, 03:44:05,VALID,916.04,VALID,0,VALID,94.9268,VALID,0.107441,VALID,18.203,VALID,20,VALID,0,
2013-06-22, 03:45:05,VALID,916.057,VALID,0,VALID,95.0716,VALID,0,VALID,18.2225,VALID,20,VALID,0,
2013-06-22, 03:46:05,VALID,916.039,VALID,0,VALID,95.2088,VALID,0,VALID,18.242,VALID,20,VALID,0,
2013-06-22, 03:47:05,VALID,916.027,VALID,0,VALID,94.9344,VALID,0,VALID,18.203,VALID,20,VALID,0,
2013-06-22, 03:48:05,VALID,916.028,VALID,0,VALID,95.2165,VALID,0,VALID,18.203,VALID,20,VALID,0,
2013-06-22, 03:49:05,VALID,916.017,VALID,0,VALID,95.2393,VALID,0,VALID,18.2044,VALID,20,VALID,0,
2013-06-22, 03:50:05,VALID,916.015,VALID,0,VALID,95.0488,VALID,0,VALID,18.164,VALID,20,VALID,0,
2013-06-22, 03:51:05,VALID,916.024,VALID,0,VALID,95.1707,VALID,0,VALID,18.1055,VALID,20,VALID,0,
2013-06-22, 03:52:05,VALID,916.042,VALID,0,VALID,95.3384,VALID,0,VALID,18.1445,VALID,20,VALID,0,
2013-06-22, 03:53:05,VALID,916.055,VALID,0,VALID,95.3918,VALID,0,VALID,18.125,VALID,20,VALID,0,
2013-06-22, 03:54:05,VALID,916.018,VALID,0,VALID,95.4147,VALID,0,VALID,18.1445,VALID,20,VALID,0,
2013-06-22, 03:55:05,VALID,916.07,VALID,0,VALID,95.4985,VALID,0,VALID,18.1654,VALID,20,VALID,0,
2013-06-22, 03:56:05,VALID,916.031,VALID,0,VALID,95.468,VALID,0,VALID,18.125,VALID,20,VALID,0,
2013-06-22, 03:57:05,VALID,916.039,VALID,0,VALID,95.6357,VALID,0,VALID,18.1835,VALID,20,VALID,0,
2013-06-22, 03:58:05,VALID,916.07,VALID,0,VALID,95.5138,VALID,0,VALID,18.1445,VALID,20,VALID,0,
2013-06-22, 03:59:05,VALID,916.089,VALID,0,VALID,95.5595,VALID,0,VALID,18.125,VALID,20,VALID,0,
2013-06-22, 04:00:05,VALID,916.076,VALID,0,VALID,95.4909,VALID,0.107441,VALID,18.1055,VALID,20,VALID,0,
2013-06-22, 04:01:05,VALID,916.078,VALID,0,VALID,95.5824,VALID,0,VALID,18.1055,VALID,20,VALID,0,